CAPE
0 0 0 15 15 12 26 38 51 42 48 53 80 114 191 139 144 333 644 691 612 446 452 506 660 338 652 379 388 292 11 16 31 30 118 195 265 304 51 349 294 145 189
0 0 0 0 0 0 5 36 49 43 60 83 107 115 17 2 272 477 659 484 615 565 515 606 617 479 455 236 556 467 361 65 14 27 63 120 144 126 37 538 486 571 518
0 0 0 0 0 0 0 8 19 55 63 63 111 109 82 120 263 481 609 529 503 402 279 396 439 416 395 156 445 408 258 186 81 40 61 93 70 125 450 607 798 735 994
0 0 0 0 0 0 2 14 32 47 71 63 80 113 88 22 162 531 576 512 490 183 344 418 403 390 206 174 208 206 94 61 8 6 12 79 28 93 455 597 717 827 718
0 0 0 0 0 3 22 37 74 81 70 49 84 121 42 49 7 386 420 225 283 170 375 410 375 186 19 113 61 22 86 15 40 15 147 107 157 91 113 50 125 90 29
0 0 0 4 6 15 46 40 66 63 38 54 131 122 34 49 54 8 31 251 169 179 350 301 258 66 25 24 5 21 2 10 44 57 118 141 125 20 116 130 80 150 100
0 0 2 12 16 20 35 42 34 39 30 58 117 183 156 41 6 5 1 276 332 416 509 463 189 98 89 61 15 2 0 0 3 90 171 123 38 50 44 3 220 130 44
0 0 13 31 40 47 28 20 28 31 58 88 97 167 140 38 0 0 0 65 461 345 320 168 237 41 90 95 30 6 1 90 118 268 307 234 130 2 25 38 13 3 0
0 4 19 38 43 66 42 22 43 55 89 124 113 149 37 41 2 0 0 121 331 330 220 100 103 14 0 20 39 0 84 4 0 0 6 5 1 0 0 198 268 139 14
5 13 10 44 66 72 77 67 73 87 126 120 100 144 45 58 3 0 0 43 292 328 229 290 5 84 0 0 65 0 20 83 138 267 146 14 13 0 0 24 0 0 0
5 0 5 26 56 111 54 123 98 139 241 193 48 139 13 7 11 0 0 414 518 202 118 202 141 1 0 0 5 0 1 33 38 421 442 325 170 81 23 73 176 284 90
0 0 26 32 42 129 55 142 182 124 219 213 137 91 20 0 0 0 0 4 15 129 64 135 116 0 0 0 0 0 0 0 2 106 479 480 506 509 505 430 166 329 262
0 8 35 50 42 113 11 60 299 353 287 75 23 28 6 1 11 0 0 0 0 73 79 17 0 0 0 0 0 0 0 0 12 29 374 455 444 401 458 422 187 111 143
2 17 20 10 24 34 18 44 184 216 105 73 7 12 7 8 1 7 0 0 0 48 16 4 2 0 0 0 0 0 0 0 0 0 0 2 71 131 180 180 101 81 57
10 6 10 5 21 25 29 19 11 40 13 19 12 16 12 4 3 1 0 0 22 40 47 31 60 89 33 19 9 0 0 0 0 0 0 3 0 13 45 51 71 34 23
1 0 2 1 10 16 11 4 0 0 0 0 1 1 1 0 0 0 0 0 0 0 20 93 108 119 99 53 21 1 0 0 0 0 0 0 65 20 0 0 17 36 38
0 0 0 0 3 8 5 1 0 0 0 0 0 1 0 0 0 0 0 0 0 0 37 73 63 21 95 53 36 1 0 0 0 0 0 0 16 83 26 44 45 49 43
0 0 0 0 0 2 1 1 0 0 0 0 0 0 0 0 0 0 0 0 9 12 63 68 78 47 55 47 34 53 56 45 1 0 0 0 3 34 46 46 60 61 56
0 0 0 0 0 0 0 0 0 0 0 0 0 0 0 0 0 0 0 10 99 103 88 76 82 81 87 82 89 86 97 192 134 76 24 0 0 12 30 34 28 2 7
0 0 0 0 0 0 0 0 0 0 0 0 0 0 0 0 0 0 0 6 36 94 109 90 92 91 76 68 86 79 101 172 249 181 74 110 25 4 11 20 19 18 14
0 0 0 0 0 0 0 0 0 0 0 0 0 0 0 0 0 0 0 0 5 85 104 88 97 103 116 80 60 84 110 126 147 88 72 73 92 58 37 25 19 18 18
0 0 0 0 0 0 0 0 0 0 0 0 0 0 0 0 0 0 0 0 0 0 0 16 111 147 178 145 90 88 93 81 101 80 82 34 75 98 71 56 47 41 23
0 0 0 0 0 0 0 0 0 0 0 0 0 0 0 0 0 0 0 0 0 0 0 0 0 21 190 309 390 235 127 119 118 95 77 86 99 85 63 63 56 51 51
0 0 0 0 0 0 0 0 0 0 0 0 0 0 0 0 0 0 0 0 0 0 0 0 0 0 3 81 203 291 281 193 105 91 91 94 99 88 98 94 88 75 74
0 0 0 0 0 0 0 0 0 0 0 0 0 0 0 0 0 0 0 0 0 0 0 0 0 0 0 0 0 47 25 0 25 8 69 66 80 87 114 114 104 97 74
0 0 0 2 1 0 0 0 0 0 0 0 0 0 0 0 0 0 0 0 0 0 0 0 0 0 0 0 0 0 0 1 0 1 44 103 105 100 66 54 88 149 130
CIN
-44 -0 -0 -62 -62 -66 -41 -26 -12 -14 -14 -9 -1 -0 -0 -3 -4 -0 -0 -0 -0 -16 -21 -15 -5 -32 -6 -13 -1 -0 -22 -24 -1 -11 -0 -1 -0 -0 -21 -0 -0 -22 -49
-0 -0 -0 -0 -0 -0 -24 -2 -3 -8 -7 -2 -0 -0 -21 -0 -0 -0 -0 -0 -3 -6 -15 -7 -6 -2 -27 -15 -2 -0 -0 -3 -14 -0 -0 -0 -0 -8 -25 -0 -0 -0 -0
-0 -0 -0 -0 -0 -0 -0 -7 -14 -2 -2 -2 -0 -0 -0 -0 -0 -0 -0 -0 -1 -3 -12 -5 -5 -2 -9 -7 -2 -0 -0 -0 -0 -0 -0 -0 -1 -0 -0 -0 -0 -6 -4
-0 -0 -0 -0 -0 -0 -0 -0 -1 -7 -0 -0 -0 -0 -0 -5 -0 -0 -0 -0 -2 -21 -11 -12 -14 -7 -11 -13 -10 -2 -0 -0 -7 -4 -6 -0 -5 -1 -0 -0 -0 -0 -0
-0 -0 -0 -0 -0 -0 -0 -0 -0 -2 -1 -1 -0 -0 -1 -0 -21 -0 -0 -11 -1 -11 -6 -8 -9 -22 -77 -48 -36 -9 -0 -1 -2 -18 -0 -0 -0 -2 -0 -7 -2 -5 -3
-0 -0 -0 -0 -0 -0 -0 -0 -1 -2 -9 -2 -0 -0 -11 -1 -6 -81 -38 -0 -4 -6 -0 -9 -12 -72 -62 -58 -29 -3 -0 -0 -0 -2 -0 -1 -0 -4 -0 -0 -0 -0 -0
-0 -0 -0 -0 -0 -0 -0 -0 -2 -5 -11 -1 -0 -0 -0 -1 -26 -65 -128 -0 -1 -6 -8 -7 -7 -39 -37 -29 -13 -6 -0 -0 -3 -0 -0 -2 -0 -2 -9 -24 -0 -2 -16
-0 -0 -0 -0 -0 -0 -0 -0 -4 -4 -0 -0 -0 -0 -0 -0 -3 -41 -0 -41 -0 -4 -10 -8 -17 -43 -50 -13 -19 -49 -13 -2 -2 -0 -0 -1 -0 -26 -7 -12 -37 -0 -0
-0 -2 -1 -0 -0 -0 -0 -3 -1 -0 -0 -0 -0 -2 -4 -0 -12 -0 -0 -26 -11 -5 -11 -56 -32 -46 -0 -37 -10 -3 -7 -18 -0 -0 -6 -97 -7 -1 -0 -0 -0 -0 -1
-3 -9 -22 -10 -0 -0 -0 -1 -1 -1 -0 -0 -1 -0 -2 -0 -9 -0 -0 -49 -12 -2 -12 -21 -138 -33 -0 -0 -19 -0 -41 -19 -4 -1 -15 -0 -0 -0 -0 -10 -0 -0 -0
-31 -0 -41 -24 -3 -2 -29 -3 -2 -2 -2 -13 -20 -0 -10 -3 -3 -0 -0 -0 -1 -2 -0 -2 -22 -41 -0 -0 -32 -29 -50 -62 -10 -2 -0 -0 -11 -58 -32 -37 -17 -7 -24
-0 -19 -7 -14 -0 -0 -36 -0 -5 -23 -0 -1 -0 -0 -11 -0 -0 -0 -0 -48 -75 -14 -4 -4 -35 -0 -0 -0 -0 -0 -0 -16 -97 -19 -0 -0 -0 -0 -0 -3 -50 -27 -32
-0 -51 -1 -0 -2 -3 -38 -7 -2 -0 -0 -0 -0 -0 -1 -0 -0 -0 -0 -0 -0 -15 -6 -127 -8 -0 -0 -0 -0 -0 -0 -1 -13 -3 -1 -0 -0 -6 -25 -26 -53 -83 -85
-77 -10 -1 -1 -2 -9 -16 -3 -0 -0 -0 -2 -1 -0 -13 -0 -0 -0 -0 -0 -0 -41 -3 -95 -60 -0 -0 -0 -0 -0 -0 -0 -0 -0 -0 -16 -20 -13 -4 -8 -48 -56 -2
-28 -16 -0 -0 -1 -1 -0 -2 -5 -0 -0 -0 -0 -0 -1 -0 -0 -0 -0 -0 -32 -11 -64 -80 -46 -13 -18 -14 -15 -0 -0 -0 -0 -0 -0 -2 -0 -1 -0 -20 -39 -0 -0
-7 -3 -0 -0 -0 -0 -0 -1 -0 -0 -0 -0 -0 -0 -0 -0 -0 -0 -0 -0 -0 -0 -79 -2 -1 -1 -0 -3 -2 -1 -0 -0 -0 -0 -0 -0 -20 -0 -0 -0 -1 -0 -0
-0 -0 -0 -0 -0 -0 -0 -0 -0 -0 -0 -0 -0 -0 -0 -0 -0 -0 -0 -0 -0 -0 -12 -5 -11 -57 -0 -7 -0 -0 -0 -0 -0 -0 -0 -0 -5 -36 -8 -0 -0 -0 -0
-10 -0 -0 -0 -0 -0 -0 -0 -0 -0 -0 -0 -0 -0 -0 -0 -0 -0 -0 -1 -3 -16 -0 -0 -2 -16 -5 -1 -1 -0 -0 -9 -1 -0 -0 -0 -5 -3 -0 -0 -0 -0 -0
-0 -0 -0 -0 -0 -0 -0 -0 -0 -0 -0 -0 -0 -0 -0 -0 -0 -0 -0 -16 -3 -4 -0 -0 -0 -3 -1 -0 -0 -10 -42 -6 -13 -50 -2 -0 -0 -1 -1 -0 -0 -11 -4
-0 -0 -0 -0 -0 -0 -0 -0 -0 -0 -0 -0 -0 -0 -0 -0 -0 -0 -0 -6 -3 -2 -2 -0 -0 -0 -4 -2 -2 -14 -46 -25 -16 -21 -84 -58 -10 -6 -0 -0 -0 -0 -0
-0 -0 -0 -0 -0 -0 -0 -0 -0 -0 -0 -0 -0 -0 -0 -0 -0 -0 -0 -0 -1 -0 -0 -0 -0 -0 -17 -7 -23 -9 -36 -32 -25 -64 -12 -31 -83 -6 -4 -0 -0 -1 -0
-0 -0 -0 -0 -0 -0 -0 -0 -0 -0 -0 -0 -0 -0 -0 -0 -0 -0 -0 -0 -0 -0 -0 -27 -0 -1 -1 -15 -13 -19 -18 -29 -51 -1 -32 -42 -12 -54 -0 -2 -0 -0 -0
-0 -0 -0 -0 -0 -0 -0 -0 -0 -0 -0 -0 -0 -0 -0 -0 -0 -0 -0 -0 -0 -0 -0 -0 -0 -45 -0 -0 -0 -5 -39 -52 -46 -24 -0 -0 -2 -4 -4 -6 -3 -0 -0
-0 -0 -0 -0 -0 -0 -0 -0 -0 -0 -0 -0 -0 -0 -0 -0 -0 -0 -0 -0 -0 -0 -0 -0 -0 -0 -57 -1 -1 -0 -0 -2 -33 -21 -25 -3 -0 -3 -5 -3 -0 -0 -0
-0 -0 -0 -0 -0 -0 -0 -0 -0 -0 -0 -0 -0 -0 -0 -0 -0 -0 -0 -0 -0 -0 -0 -0 -0 -0 -0 -0 -0 -8 -39 -0 -10 -43 -19 -20 -14 -7 -2 -0 -0 -0 -2
-0 -0 -0 -0 -0 -0 -0 -0 -0 -0 -0 -0 -0 -0 -0 -0 -0 -0 -0 -0 -0 -0 -0 -0 -0 -0 -0 -0 -0 -0 -0 -0 -0 -0 -2 -0 -0 -0 -10 -25 -11 -0 -0
Wind_Speed
4 5 5 7 9 9 9 10 9 9 10 11 12 13 13 12 11 10 12 12 14 9 8 9 10 8 7 7 6 6 7 7 7 5 5 8 10 8 7 6 6 6 4
5 6 7 8 8 9 10 10 9 10 10 12 12 12 12 11 10 10 13 12 13 10 8 9 10 6 6 6 6 7 8 7 4 6 4 3 7 4 5 5 5 7 8
7 8 8 8 9 10 11 11 10 12 11 12 12 12 11 10 9 9 11 11 9 7 6 8 8 7 5 4 5 5 5 4 5 5 4 4 2 3 5 4 4 3 5
8 9 10 11 11 11 11 12 11 11 11 12 13 12 8 8 10 9 10 7 6 5 5 6 6 5 4 5 5 3 3 3 4 5 4 3 2 3 3 4 5 5 5
10 11 11 12 12 12 12 12 11 11 11 12 13 12 8 6 7 8 7 6 7 6 6 6 5 4 2 2 3 2 5 4 4 4 5 3 2 1 2 2 4 5 6
11 11 11 11 12 12 11 11 11 11 12 12 13 12 6 5 7 7 7 6 7 8 6 5 4 6 5 8 4 5 8 5 4 5 4 3 4 3 7 6 6 6 3
10 10 11 11 12 11 11 12 12 12 12 12 13 11 7 4 8 10 9 8 7 7 6 4 3 4 5 6 4 7 5 2 3 7 6 6 3 2 7 5 5 5 4
10 11 12 13 13 13 12 13 13 12 12 11 12 10 9 5 8 8 9 6 6 5 3 4 4 7 6 6 4 8 5 5 4 4 5 8 6 3 6 7 6 7 5
10 11 11 12 13 14 13 14 13 11 12 10 9 11 5 8 4 6 7 7 6 6 5 5 4 6 7 7 2 1 2 6 7 10 10 11 11 8 6 9 9 9 9
10 10 10 11 12 14 11 13 11 11 10 7 9 6 8 7 6 5 9 6 8 5 4 4 3 3 8 9 3 3 4 5 6 10 10 9 8 6 0 5 7 7 8
9 7 9 9 12 11 9 11 11 12 10 8 7 7 6 7 8 6 9 7 7 7 5 5 4 5 6 6 6 3 3 6 6 7 7 7 7 6 5 4 3 2 5
6 8 9 8 10 7 9 11 14 7 9 8 9 8 6 9 6 4 7 6 4 4 5 3 4 8 6 8 6 7 7 6 4 5 6 7 7 6 5 4 4 4 4
7 9 8 9 10 8 7 9 9 9 7 6 9 8 6 8 5 5 5 3 5 4 4 6 9 7 10 7 6 7 5 3 4 5 6 5 6 6 7 6 5 6 7
8 7 6 7 8 7 6 5 7 6 7 7 5 5 5 5 5 6 4 3 5 6 9 5 5 6 6 7 6 5 3 2 2 4 4 4 4 5 5 5 5 4 4
7 5 5 5 6 7 6 6 7 6 4 5 6 5 6 5 4 5 4 4 4 6 6 5 4 5 6 6 4 4 3 4 3 3 3 4 5 5 5 5 4 4 3
6 4 5 6 6 6 6 7 3 4 10 7 6 4 4 7 6 6 3 4 2 8 2 4 5 5 6 6 6 5 4 4 4 3 3 3 5 5 6 5 4 4 4
6 5 5 5 6 6 5 6 7 5 7 5 4 6 7 9 8 2 3 6 5 7 6 5 4 3 5 7 5 5 5 5 5 5 5 4 3 4 5 6 5 5 5
6 6 6 5 5 5 5 5 5 4 5 5 1 3 6 5 3 3 3 6 6 5 6 6 5 4 4 5 5 5 5 5 6 6 6 5 5 4 5 4 5 5 4
7 6 5 5 5 5 6 5 5 5 5 5 5 3 4 9 3 3 3 6 6 7 6 6 5 6 5 6 5 3 4 6 6 6 6 7 7 6 6 6 5 2 1
8 10 7 6 5 6 5 6 5 5 5 5 5 4 4 4 4 3 3 3 4 5 5 5 5 5 6 6 6 5 3 5 7 6 5 7 7 8 8 8 7 7 7
7 7 9 8 7 6 6 6 6 6 5 5 5 3 2 5 3 3 2 2 3 4 4 5 6 6 6 6 8 7 6 5 4 3 3 4 7 8 8 7 7 6 6
7 8 8 9 8 7 7 6 7 7 7 7 6 4 6 6 5 4 5 4 3 2 2 4 6 6 6 5 7 7 7 6 5 4 5 4 6 7 8 8 8 7 6
8 9 10 10 9 9 8 8 8 8 8 8 7 6 6 6 6 5 5 5 5 5 4 4 4 6 6 5 5 6 6 6 6 5 5 5 5 6 6 7 8 8 8
8 9 10 10 10 10 10 9 9 9 9 9 8 8 8 7 7 7 7 6 6 7 7 6 6 7 5 6 5 5 6 5 4 4 5 5 6 5 7 7 8 9 9
8 8 10 9 9 10 11 11 10 10 9 9 9 9 9 9 9 9 8 8 8 8 9 8 8 10 11 11 9 8 4 2 7 2 5 5 5 5 6 6 6 6 6
4 5 6 8 8 6 7 9 10 10 11 10 10 10 10 10 10 10 9 9 9 10 11 9 10 13 13 11 12 9 6 7 6 5 6 7 7 6 5 5 6 5 6
Wind_Direction
326 328 329 330 333 328 313 303 295 301 306 307 306 300 297 294 269 237 230 233 224 231 220 239 246 241 248 241 243 232 229 227 251 286 280 292 282 296 292 246 193 178 171
351 345 345 337 333 325 317 305 298 302 307 308 307 310 299 285 258 232 230 224 224 223 226 238 259 252 235 250 254 250 235 234 224 258 259 270 266 324 266 208 190 179 195
354 341 335 331 330 328 322 320 306 304 311 312 307 303 300 290 265 237 230 227 221 208 239 272 260 240 239 271 268 258 248 247 220 230 256 239 272 262 218 136 151 177 173
335 337 337 334 329 323 320 317 310 305 311 312 305 298 301 286 284 240 231 218 195 173 258 248 256 242 271 274 241 261 210 234 229 224 231 237 251 253 163 136 122 104 128
341 336 334 329 324 319 323 323 316 315 316 310 305 293 288 289 272 258 237 246 221 209 231 228 264 231 294 351 82 291 262 248 255 186 211 187 214 76 87 72 101 97 62
334 332 329 327 326 324 323 326 319 319 318 312 307 295 278 283 277 258 246 236 223 232 255 197 193 179 136 108 2 320 325 261 182 180 181 135 84 110 126 124 127 124 107
327 325 327 327 328 333 328 325 325 322 312 314 313 296 295 269 283 254 241 235 240 235 214 179 181 124 130 108 3 324 346 152 33 166 153 118 107 98 104 97 95 93 94
322 320 328 332 327 326 328 326 324 321 314 313 304 310 329 281 265 240 221 231 240 229 158 143 160 127 139 116 20 337 14 54 63 122 125 140 118 115 86 89 85 105 96
324 327 328 330 329 325 326 326 326 321 317 317 304 313 329 315 300 226 195 208 222 201 149 159 181 117 154 131 227 291 81 89 70 66 73 92 102 111 126 140 142 132 124
317 317 320 324 327 322 325 323 319 313 305 312 317 339 339 319 311 227 196 190 197 183 171 145 216 148 165 185 228 129 91 89 101 108 108 106 131 121 275 139 143 124 121
301 308 309 317 324 328 314 317 322 314 307 325 346 355 356 342 306 190 206 212 190 178 169 165 189 206 174 183 179 189 132 112 103 122 128 143 143 148 145 146 79 112 137
309 302 310 320 329 325 318 320 328 321 324 3 2 359 349 331 322 195 194 244 168 166 178 148 117 128 131 137 153 124 124 142 134 132 147 159 161 156 139 139 103 50 43
303 302 323 328 336 339 324 340 337 346 355 4 12 352 352 328 7 53 178 210 186 189 148 101 105 120 107 98 110 132 176 136 144 159 136 136 132 107 116 116 97 90 72
303 307 333 330 338 329 328 348 345 348 340 4 341 338 324 335 13 349 160 150 165 150 133 97 97 109 59 108 158 171 125 121 117 117 118 121 130 149 151 147 143 146 132
299 294 311 316 328 322 333 333 342 343 344 326 329 327 332 332 354 307 291 193 202 113 127 127 139 167 181 172 175 160 159 165 167 142 142 156 164 175 173 172 163 156 159
291 285 310 305 316 328 332 335 338 280 303 315 278 250 317 271 322 314 282 246 267 151 158 175 193 193 205 192 189 182 199 199 201 197 187 178 172 177 162 175 188 205 182
270 281 290 280 312 321 329 335 342 339 312 320 15 316 292 286 327 201 120 97 180 173 222 182 212 225 199 195 198 206 209 196 185 204 207 197 181 173 178 174 182 194 190
256 247 273 286 299 306 320 323 325 325 315 318 210 330 330 345 41 108 137 170 158 213 219 217 194 216 199 198 207 225 211 187 194 200 203 200 195 181 182 189 186 192 183
235 249 249 262 272 294 294 298 310 316 314 312 318 308 34 0 21 113 215 263 202 197 202 213 222 208 214 216 227 222 223 211 198 200 210 202 199 198 200 209 203 237 220
242 239 248 252 259 262 275 286 291 294 298 305 313 330 338 345 352 18 12 296 275 227 205 220 212 218 221 223 213 225 202 196 184 196 209 211 204 210 220 218 225 226 217
249 242 224 245 244 248 256 271 275 278 280 286 294 319 16 293 297 299 279 229 280 273 248 237 236 226 225 210 205 211 200 195 193 196 216 192 203 208 214 216 225 220 242
253 249 233 238 251 245 238 241 249 255 262 270 275 253 174 257 275 266 242 232 213 209 246 273 265 240 236 233 222 222 222 198 231 223 183 215 210 216 222 216 221 224 221
245 245 241 239 241 241 243 243 239 246 248 249 255 263 256 251 254 252 259 259 250 239 223 229 245 271 238 242 236 230 219 255 236 236 232 228 222 227 225 223 225 225 226
256 242 242 248 244 244 244 244 245 230 251 258 253 248 247 250 252 250 250 245 248 251 240 226 235 250 253 258 231 260 254 240 241 247 254 248 250 198 236 229 237 240 245
301 297 285 267 250 247 254 250 247 243 241 234 238 250 253 251 245 243 245 246 241 238 241 245 235 236 243 246 251 257 243 298 266 227 220 231 236 250 255 247 250 242 243
3 328 322 304 284 268 258 257 258 251 254 249 245 238 242 246 249 250 244 239 238 235 235 233 236 236 238 239 238 232 196 182 217 255 257 232 229 222 218 249 275 255 236